Simultaneous Nadir Overpasses (SNOs) Predictions

Prediction of SNOs between GOES-17 and NPP Satellite Orbit:

Table of predicted SNOs for the next 14.0 days since TLE Epoch: 7/6/2024
Index Date Time (GOES-17) GOES-17 Lat,Lon NPP Lat,Lon Distance(km) Time Diff (sec)
1 07/06/2024 20:23:34 0.02,-104.71 0.12,-104.35 41.62 80
2 07/09/2024 08:26:40 -0.01,-104.70 0.10,-105.09 45.53 80
3 07/10/2024 08:05:16 -0.01,-104.70 -0.90,-100.57 470.51 80
4 07/11/2024 20:27:16 0.01,-104.71 -0.22,-105.89 133.58 80
5 07/12/2024 20:11:12 0.01,-104.72 0.78,-101.36 382.62 80
6 07/14/2024 08:33:01 -0.01,-104.71 0.42,-106.64 219.65 80
7 07/15/2024 08:11:38 -0.01,-104.71 -0.59,-102.11 296.28 80
8 07/16/2024 20:33:36 0.02,-104.72 -0.59,-107.43 308.37 80
9 07/17/2024 20:17:33 0.02,-104.72 0.42,-102.90 207.43 80
10 07/19/2024 08:39:22 -0.02,-104.71 0.77,-108.18 395.26 80
